Waarnemingen

Advertentie
Mijn weer
L9F, Nederland (6207): temperatuur & dauwpunt: 18.02.2017 09:00:00 - 24.02.2017 09:00:00 (CET)L9F, Nederland (6207): windsnelheid & windstoten: 18.02.2017 09:00:00 - 24.02.2017 09:00:00 (CET)L9F, Nederland (6207): windrichting: 18.02.2017 09:00:00 - 24.02.2017 09:00:00 (CET)L9F, Nederland (6207): luchtdruk: 18.02.2017 09:00:00 - 24.02.2017 09:00:00 (CET)L9F, Nederland (6207): zicht: 18.02.2017 09:00:00 - 24.02.2017 09:00:00 (CET)
Datum & Tijd tt [°C] td [°C] ff [km/u] ff [kn] fx [km/u] fx [kn] dd ppp [hPa] vv [km]
24.02.2017 09:00:00 4,4 0,1 29 16 54 29 WNW 1008,7 10
24.02.2017 08:00:00 5,1 -0,9 42 23 50 27 NW 1007,4 10
24.02.2017 07:00:00 5,5 -1,1 41 22 50 27 NW 1006,0 10
24.02.2017 06:00:00 4,9 0,1 54 29 58 31 NW 1004,6 10
24.02.2017 05:00:00 5,7 -1,8 57 31 65 35 NW 1002,8 10
24.02.2017 04:00:00 5,6 -2,0 63 34 68 37 NW 1001,2 10
24.02.2017 03:00:00 5,5 -3,8 72 39 72 39 NW 999,6 10
24.02.2017 02:00:00 5,6 -2,5 65 35 72 39 NW 997,8 10
24.02.2017 01:00:00 5,5 -1,6 72 39 72 39 NW 995,7 10
24.02.2017 00:00:00 5,4 -1,3 70 38 79 43 NNW 993,3 10
23.02.2017 23:00:00 5,2 -0,4 78 42 83 45 NNW 990,8 10
23.02.2017 22:00:00 4,7 1,6 81 44 83 45 N 986,9 10
23.02.2017 21:00:00 5,8 5,0 41 22 79 43 W 982,7 9
23.02.2017 20:00:00 6,1 5,0 52 28 58 31 W 981,3 3,0
23.02.2017 19:00:00 6,3 4,5 54 29 50 27 W 979,9 10
23.02.2017 18:00:00 6,0 4,2 50 27 72 39 W 977,5 8
23.02.2017 17:00:00 5,5 4,3 67 36 83 45 WZW 976,9 5
23.02.2017 16:00:00 6,3 4,0 65 35 76 41 WZW 978,3 1,6
23.02.2017 15:00:00 7,4 4,3 63 34 79 43 ZW 979,5 10
23.02.2017 14:00:00 7,5 5,1 70 38 83 45 ZW 980,6 4,0
23.02.2017 13:00:00 7,4 5,9 78 42 83 45 ZZW 981,9 8
23.02.2017 12:00:00 7,1 6,3 81 44 83 45 ZZW 983,9 6
23.02.2017 11:00:00 7,2 6,4 72 39 72 39 ZZW 986,4 6
23.02.2017 10:00:00 7,2 6,7 74 40 72 39 ZW 988,7 5
23.02.2017 09:00:00 6,1 5,6 44 24 47 25 Z 991,0 8
23.02.2017 08:00:00 5,2 4,5 39 21 36 19 Z 993,7 9
23.02.2017 07:00:00 5,2 4,5 16 9 18 10 Z 995,8 10
23.02.2017 06:00:00 5,5 3,5 15 8 22 12 ZW 997,4 10
23.02.2017 05:00:00 6,3 3,1 31 17 32 18 WZW 998,2 10
23.02.2017 04:00:00 6,3 4,2 31 17 29 16 WZW 999,0 10
23.02.2017 03:00:00 6,5 4,0 35 19 36 19 W 1000,0 10
23.02.2017 02:00:00 6,6 4,0 37 20 40 21 W 1000,6 10
23.02.2017 01:00:00 6,8 3,8 42 23 43 23 W 1000,8 10
23.02.2017 00:00:00 6,9 3,7 44 24 43 23 W 1001,0 10
22.02.2017 23:00:00 6,9 3,8 42 23 47 25 W 1001,0 10
22.02.2017 22:00:00 7,1 3,6 48 26 47 25 W 1001,2 10
22.02.2017 21:00:00 7,4 3,4 52 28 54 29 W 1000,8 10
22.02.2017 20:00:00 7,1 4,1 50 27 47 25 W 1000,9 10
22.02.2017 19:00:00 7,2 3,9 54 29 50 27 W 1000,6 10
22.02.2017 18:00:00 7,4 3,9 54 29 50 27 W 1000,2 10
22.02.2017 17:00:00 7,5 3,4 54 29 54 29 W 1000,1 10
22.02.2017 16:00:00 7,4 3,9 54 29 50 27 W 1000,3 10
22.02.2017 15:00:00 7,1 3,8 52 28 50 27 W 1000,5 10
22.02.2017 14:00:00 7,0 3,8 46 25 47 25 W 1000,4 10
22.02.2017 13:00:00 7,0 4,1 46 25 47 25 W 1000,8 10
22.02.2017 12:00:00 7,0 3,5 42 23 43 23 W 1001,0 10
22.02.2017 11:00:00 7,2 4,6 42 23 43 23 W 1001,0 10
22.02.2017 10:00:00 7,3 4,7 46 25 47 25 W 1000,8 10
22.02.2017 09:00:00 7,6 5,4 57 31 54 29 W 1000,4 10
22.02.2017 08:00:00 7,7 7,2 55 30 72 39 W 999,5 4,9
22.02.2017 07:00:00 8,2 6,9 68 37 72 39 WZW 998,5 10
22.02.2017 06:00:00 8,6 6,9 72 39 72 39 WZW 998,3 10
22.02.2017 05:00:00 8,0 7,4 67 36 65 35 WZW 998,8 8
22.02.2017 04:00:00 7,7 6,9 70 38 72 39 WZW 999,2 6
22.02.2017 03:00:00 8,1 6,5 72 39 72 39 WZW 999,7 7
22.02.2017 02:00:00 7,6 7,1 68 37 72 39 WZW 1000,6 5
22.02.2017 01:00:00 8,1 6,8 68 37 68 37 ZW 1001,5 9
22.02.2017 00:00:00 7,9 7,1 68 37 72 39 ZW 1002,2 6
21.02.2017 23:00:00 7,5 7,3 68 37 68 37 ZW 1003,3 2,1
21.02.2017 22:00:00 6,9 6,6 65 35 65 35 ZW 1004,9 3,3
21.02.2017 21:00:00 6,5 5,7 61 33 58 31 ZZW 1006,6 9
21.02.2017 20:00:00 6,0 4,6 54 29 50 27 ZZW 1008,1 10
21.02.2017 19:00:00 5,8 4,8 42 23 43 23 ZZW 1009,5 10
21.02.2017 18:00:00 5,9 4,8 34 18 32 18 WZW 1010,6 10
21.02.2017 17:00:00 6,0 4,8 34 18 32 18 WZW 1011,4 10
21.02.2017 16:00:00 6,1 4,8 37 20 32 18 WZW 1011,9 10
21.02.2017 15:00:00 6,2 4,7 34 18 32 18 WZW 1012,2 10
21.02.2017 14:00:00 6,2 4,9 35 19 36 19 W 1012,7 10
21.02.2017 13:00:00 6,1 4,7 34 18 32 18 W 1013,2 10
21.02.2017 12:00:00 6,3 4,7 35 19 32 18 W 1013,1 10
21.02.2017 11:00:00 6,1 4,7 34 18 43 23 W 1012,8 10
21.02.2017 10:00:00 6,3 4,5 39 21 43 23 - 1012,3 10
21.02.2017 09:00:00 6,5 4,6 44 24 47 25 - 1012,0 10
21.02.2017 08:00:00 6,9 4,6 50 27 50 27 - 1011,2 10
21.02.2017 07:00:00 6,8 4,5 50 27 50 27 WNW 1010,6 10
21.02.2017 06:00:00 6,8 4,5 50 27 54 29 - 1010,4 10
21.02.2017 05:00:00 6,9 4,4 42 23 54 29 W 1010,0 10
21.02.2017 04:00:00 7,0 4,3 48 26 54 29 - 1010,1 10
21.02.2017 03:00:00 7,4 4,5 42 23 58 31 - 1010,2 10
21.02.2017 02:00:00 7,2 5,1 44 24 43 23 W 1010,3 10
21.02.2017 01:00:00 7,5 5,5 44 24 50 27 W 1010,6 10
21.02.2017 00:00:00 7,5 5,7 63 34 58 31 - 1010,6 10
20.02.2017 23:00:00 7,5 6,1 46 25 50 27 W 1010,4 10
20.02.2017 22:00:00 7,5 6,4 52 28 58 31 - 1010,2 10
20.02.2017 21:00:00 7,5 6,4 50 27 54 29 W 1009,9 10
20.02.2017 20:00:00 8,6 7,0 55 30 54 29 W 1009,7 10
20.02.2017 19:00:00 9,2 7,2 63 34 61 33 W 1009,3 10
20.02.2017 18:00:00 8,2 6,8 54 29 54 29 W 1008,8 10
20.02.2017 17:00:00 7,9 6,7 54 29 58 31 W 1008,4 10
20.02.2017 16:00:00 8,1 6,9 54 29 54 29 W 1008,5 10
20.02.2017 15:00:00 7,7 6,8 55 30 54 29 W 1008,9 9
20.02.2017 14:00:00 7,0 6,4 54 29 58 31 WZW 1009,1 7
20.02.2017 13:00:00 7,5 7,1 55 30 54 29 WZW 1009,5 5
20.02.2017 12:00:00 7,3 6,9 54 29 50 27 WZW 1010,2 3,2
20.02.2017 11:00:00 7,4 6,8 52 28 50 27 WZW 1010,6 6
20.02.2017 10:00:00 7,5 6,9 52 28 54 29 WZW 1011,2 5
20.02.2017 09:00:00 7,2 6,9 54 29 58 31 WZW 1011,4 2,1
20.02.2017 08:00:00 6,7 6,6 54 29 54 29 WZW 1011,5 1,5
20.02.2017 07:00:00 6,6 6,1 52 28 50 27 WZW 1011,7 2,0
20.02.2017 06:00:00 6,8 6,0 55 30 50 27 WZW 1012,1 6
20.02.2017 05:00:00 6,8 5,8 54 29 50 27 ZW 1013,1 8
20.02.2017 04:00:00 6,8 5,8 54 29 54 29 ZW 1013,2 9
20.02.2017 03:00:00 6,8 5,7 52 28 50 27 WZW 1014,7 10
20.02.2017 02:00:00 6,8 5,5 50 27 47 25 WZW 1015,4 10
20.02.2017 01:00:00 6,7 5,3 48 26 47 25 WZW 1015,9 10
20.02.2017 00:00:00 6,2 5,1 39 21 40 21 WZW 1016,8 10
19.02.2017 23:00:00 6,2 5,1 35 19 36 19 WZW 1017,5 10
19.02.2017 22:00:00 6,1 5,1 35 19 36 19 WZW 1017,7 10
19.02.2017 21:00:00 6,0 5,1 29 16 32 18 WZW 1018,0 10
19.02.2017 20:00:00 5,9 5,1 28 15 29 16 W 1018,1 10
19.02.2017 19:00:00 5,9 5,2 31 17 29 16 W 1018,3 10
19.02.2017 18:00:00 5,8 5,2 29 16 29 16 W 1017,7 10
19.02.2017 17:00:00 5,9 5,3 25 14 32 18 W 1017,4 10
19.02.2017 16:00:00 6,0 5,4 29 16 40 21 W 1017,7 10
19.02.2017 15:00:00 6,3 5,1 32 18 36 19 W 1017,5 12
19.02.2017 14:00:00 6,0 5,0 25 14 36 19 W 1017,3 9
19.02.2017 13:00:00 6,1 5,0 29 16 36 19 W 1017,5 7
19.02.2017 12:00:00 6,5 5,2 32 18 40 21 W 1017,8 7
19.02.2017 11:00:00 6,3 5,3 32 18 36 19 W 1017,5 4,9
19.02.2017 10:00:00 6,3 5,2 32 18 43 23 WZW 1017,4 5
19.02.2017 09:00:00 - - - - - - - - -
19.02.2017 08:00:00 6,1 5,0 41 22 43 23 WZW 1016,6 5
19.02.2017 07:00:00 6,1 4,9 44 24 43 23 WZW 1016,6 6
19.02.2017 06:00:00 6,5 4,8 46 25 47 25 WZW 1016,8 7
19.02.2017 05:00:00 6,3 4,9 50 27 50 27 ZW 1017,0 7
19.02.2017 04:00:00 6,5 5,2 52 28 54 29 WZW 1017,5 7
19.02.2017 03:00:00 6,2 4,9 57 31 54 29 ZW 1018,1 8
19.02.2017 02:00:00 5,7 5,1 48 26 50 27 ZW 1018,6 2,9
19.02.2017 01:00:00 5,1 4,9 46 25 50 27 ZW 1019,7 0,4
19.02.2017 00:00:00 5,5 5,2 54 29 50 27 ZW 1020,2 2,0
18.02.2017 23:00:00 5,4 4,6 44 24 54 29 ZW 1020,8 3,5
18.02.2017 22:00:00 5,5 4,5 42 23 50 27 ZW 1021,5 3,8
18.02.2017 21:00:00 5,2 4,3 52 28 50 27 ZW 1021,3 5
18.02.2017 20:00:00 5,0 4,2 46 25 50 27 ZW 1022,1 5
18.02.2017 19:00:00 4,8 4,3 52 28 50 27 ZW 1022,6 2,3
18.02.2017 18:00:00 4,7 4,5 52 28 50 27 ZW 1022,7 4,1
18.02.2017 17:00:00 4,6 4,2 48 26 47 25 ZW 1023,3 2,8
18.02.2017 16:00:00 4,4 4,3 32 18 43 23 ZZW 1023,7 0,4
18.02.2017 15:00:00 4,3 4,2 39 21 40 21 ZW 1024,0 0,6
18.02.2017 14:00:00 4,3 4,2 41 22 40 21 ZW 1024,6 1,0
18.02.2017 13:00:00 3,6 3,6 41 22 40 21 ZZW 1025,5 0,1
18.02.2017 12:00:00 3,7 3,5 35 19 36 19 ZZW 1025,9 0,1
18.02.2017 11:00:00 3,6 3,3 34 18 32 18 ZZW 1026,0 0,2
18.02.2017 10:00:00 3,9 3,8 28 15 29 16 ZZW 1026,0 0,3
18.02.2017 09:00:00 3,9 3,6 24 13 25 14 ZW 1026,0 0,3

tt = temperatuur
td = dauwpunt
ff = windsnelheid
fx = windstoten
dd = windrichting
ppp = luchtdruk
vv = zicht

Weerstations in de omgeving